Temp
24 24 24 24 24 24 24 25 25 25 25 25 25 25 25 25 25 25 24 24 24 24 24 24 24 24 24 24 24 24 24 24 24 24 24 24 24 24 24 24 24 24
24 24 24 24 24 24 24 25 25 25 25 25 26 25 25 25 25 25 24 24 24 24 24 24 24 24 24 24 24 24 24 24 24 24 24 24 24 24 24 24 24 24
23 24 24 24 24 24 25 25 25 25 25 25 25 25 25 25 25 25 25 24 24 24 24 24 24 24 24 24 24 24 24 24 24 24 24 24 24 24 24 24 24 24
23 24 24 24 24 24 25 24 24 25 25 25 25 25 25 26 25 25 25 25 24 24 24 24 24 24 24 24 24 24 24 24 24 24 24 24 24 24 24 24 24 24
24 24 24 24 24 24 24 24 25 25 25 25 25 25 25 26 26 26 25 25 25 25 24 24 24 24 24 24 24 24 24 24 24 24 24 24 24 25 25 24 24 24
23 24 24 24 24 24 24 24 25 25 25 25 25 25 25 26 26 26 26 26 25 25 25 25 24 24 24 24 24 24 24 24 24 24 24 24 24 24 24 24 24 24
23 23 24 24 24 24 24 24 25 25 25 25 25 25 25 25 25 26 26 26 26 25 25 25 25 25 24 24 24 24 24 24 24 24 24 24 24 24 24 24 24 24
23 23 23 24 23 24 24 24 24 25 25 25 25 25 25 25 25 25 26 26 26 26 26 25 25 25 25 25 24 24 24 24 24 24 24 24 24 24 24 24 24 24
23 23 23 23 23 23 24 24 24 25 25 25 25 25 25 25 25 25 25 26 26 26 26 26 26 25 25 25 25 25 24 24 24 24 24 24 24 24 24 24 24 24
23 23 23 23 23 23 24 24 24 24 25 25 25 25 25 25 25 25 25 26 26 26 26 26 26 26 25 25 25 25 25 25 24 24 24 24 24 24 24 24 24 25
23 23 23 23 23 23 24 24 24 24 24 25 25 25 25 25 25 25 25 25 25 26 26 26 26 26 26 26 25 25 25 25 25 25 25 24 24 25 24 24 24 25
23 23 23 23 23 23 24 24 24 24 24 24 25 25 25 25 25 25 25 25 25 25 26 26 26 26 26 26 26 26 25 25 25 25 25 25 25 25 25 25 25 25
23 23 23 23 23 23 23 23 24 24 24 24 24 24 24 25 25 25 25 25 25 25 25 25 25 26 26 26 26 26 26 26 26 26 25 25 25 25 25 25 25 25
23 23 23 23 23 23 23 23 23 24 24 24 24 24 24 24 25 25 25 25 25 25 25 25 25 25 25 25 25 25 26 26 26 26 26 26 26 26 25 25 25 25
24 24 23 23 23 23 23 23 23 23 24 24 24 24 24 24 24 24 25 25 25 25 25 25 25 25 25 25 25 25 25 26 26 26 26 26 25 25 25 25 25 25
24 24 24 23 23 23 23 23 23 23 23 23 24 24 24 24 24 24 24 24 25 25 25 25 25 25 25 25 25 25 25 25 26 26 26 26 25 25 25 25 25 25
24 24 24 24 23 23 23 23 23 23 23 23 23 24 24 24 24 24 24 24 24 24 24 24 25 25 25 25 25 25 25 25 25 25 25 25 25 25 25 25 25 25
24 24 24 24 24 23 23 23 23 23 23 23 23 23 23 23 24 24 24 24 24 24 24 24 24 25 25 25 25 25 25 25 25 25 25 25 25 25 25 25 25 25
25 24 24 24 24 24 24 23 23 23 23 23 23 23 23 23 23 24 24 24 24 24 24 24 24 25 25 25 25 25 25 25 25 24 24 24 25 25 25 25 25 25
25 24 24 24 24 24 24 23 23 23 23 23 23 23 23 23 23 23 24 24 24 24 24 24 24 25 25 25 25 25 25 25 24 24 24 24 24 24 25 25 25 25
24 24 24 24 24 24 23 23 23 23 23 23 23 23 23 23 23 23 23 24 24 24 24 24 24 24 25 25 25 25 25 25 24 24 24 24 24 24 24 25 25 25
25 24 24 24 24 24 23 23 23 23 23 23 23 23 23 23 23 23 23 23 24 24 23 24 24 24 24 24 25 25 25 24 24 24 24 24 24 24 24 25 25 25
24 24 24 24 24 24 24 23 23 23 23 23 23 23 23 23 23 23 24 24 24 24 23 24 24 24 24 24 24 24 24 24 24 24 24 24 24 24 24 25 25 25
23 23 24 24 24 24 24 24 24 24 23 23 23 23 24 24 24 24 24 24 24 24 24 24 24 24 24 24 24 24 24 24 24 24 24 24 24 24 24 24 25 25
21 22 23 24 24 24 24 24 24 24 24 24 24 24 24 24 24 24 24 24 24 24 24 24 24 24 24 24 24 24 24 24 24 24 23 23 24 24 24 24 24 25
20 21 22 23 23 24 24 24 24 24 24 24 24 24 24 24 24 24 24 24 24 24 24 24 24 24 24 24 24 24 24 24 24 24 23 23 23 23 24 24 24 24
Height
836 838 840 841 843 845 847 848 850 852 853 855 856 858 859 861 863 864 865 866 868 869 870 871 873 874 875 876 876 877 878 878 879 879 880 880 881 881 882 883 883 883
834 836 838 840 841 843 845 847 849 850 852 854 855 857 859 860 862 863 864 865 867 868 869 871 872 873 874 875 876 877 877 878 878 879 879 880 880 881 881 882 882 883
832 834 836 838 839 841 843 845 847 849 850 852 854 856 858 859 861 862 863 864 865 867 868 870 871 872 873 874 875 876 876 877 878 878 879 879 880 880 881 881 882 882
830 832 833 835 837 839 841 843 845 847 849 851 852 854 856 858 859 861 862 863 864 866 867 868 870 871 872 873 874 875 875 876 877 878 878 879 879 880 880 881 881 881
827 829 831 834 836 837 839 841 843 845 847 849 851 853 855 856 858 859 860 862 863 864 865 867 868 869 871 872 873 874 874 875 876 877 877 878 878 879 879 880 880 881
824 827 829 832 834 836 837 838 840 843 844 847 849 851 853 855 856 858 859 860 861 863 864 865 866 868 869 870 871 872 873 874 875 875 876 876 877 878 878 879 879 880
822 824 827 830 832 834 835 836 838 840 842 845 847 849 852 853 855 856 857 859 860 861 862 863 864 866 867 868 869 870 871 872 873 874 874 875 875 876 877 877 878 878
820 822 824 827 830 831 833 834 836 837 840 842 845 847 849 851 853 854 856 857 858 859 860 861 862 864 865 866 867 868 869 870 871 872 872 873 874 874 875 876 876 876
818 820 822 825 827 829 830 832 833 835 837 839 842 844 847 849 851 853 854 855 857 858 858 859 860 862 863 864 865 866 867 868 869 870 871 871 872 872 873 874 875 875
815 817 820 822 823 825 827 829 831 833 835 837 839 841 844 846 848 850 852 854 855 856 856 857 858 859 861 862 863 864 865 866 867 868 868 869 870 870 871 872 873 873
812 815 817 818 820 822 824 827 829 831 832 834 836 838 841 843 846 848 850 851 852 853 854 855 856 857 858 859 860 861 862 863 864 865 866 867 867 868 869 870 870 870
810 812 814 816 818 820 822 824 827 829 830 832 833 835 837 840 842 844 846 848 849 851 852 853 854 855 856 856 858 858 860 860 861 862 863 864 865 865 866 867 868 868
807 809 811 813 815 817 819 822 824 826 827 829 831 833 835 837 839 841 843 844 846 848 850 851 852 853 853 854 855 856 857 858 858 859 860 861 861 862 863 864 865 865
803 806 808 810 812 814 816 818 820 822 824 826 828 829 831 833 835 837 839 841 843 844 846 848 849 850 851 851 852 853 854 855 855 856 857 858 859 859 860 861 861 862
800 802 804 807 809 811 813 815 817 819 821 823 824 825 827 829 831 834 836 837 839 840 842 844 845 846 847 848 849 850 851 852 853 854 854 855 856 856 857 857 858 858
796 799 801 803 805 807 809 811 813 816 818 819 821 822 824 825 828 830 832 833 834 836 837 839 840 841 842 844 845 847 848 849 850 851 851 852 853 853 854 854 854 855
792 795 797 799 801 803 805 807 810 812 815 816 818 819 821 822 824 826 827 828 830 831 833 834 834 836 837 839 841 843 844 846 846 847 848 849 850 850 850 850 851 852
788 791 793 795 797 799 801 804 807 809 811 813 814 816 818 819 821 822 823 824 826 827 828 828 829 830 832 834 836 838 840 842 843 844 844 845 846 846 846 847 848 848
785 787 789 791 793 795 797 800 803 805 806 808 810 812 814 816 817 818 819 820 821 822 823 823 824 825 827 829 831 833 835 837 839 840 840 841 841 842 842 843 844 845
782 783 785 787 789 791 793 796 798 799 801 803 805 808 810 810 811 813 814 815 817 817 818 818 819 820 822 824 826 828 830 833 834 836 836 837 837 838 838 839 840 840
779 780 781 783 785 787 790 791 793 795 796 798 801 803 804 805 807 809 810 811 812 813 814 814 814 815 817 819 821 823 825 828 830 831 832 833 833 833 834 834 835 835
777 777 778 779 781 784 786 787 789 790 792 794 797 798 800 801 803 804 805 806 807 809 810 810 809 811 813 814 816 818 821 824 825 827 828 828 828 829 829 830 830 831
775 775 776 777 779 781 782 783 784 786 788 790 793 794 796 797 798 799 800 801 803 804 805 804 804 805 808 810 812 815 817 819 820 821 823 823 824 824 825 825 825 826
774 773 773 774 776 777 778 779 780 782 784 786 788 789 790 791 793 794 796 797 798 799 799 799 799 800 803 805 807 810 813 814 816 817 818 819 819 820 820 821 821 821
772 771 771 771 772 773 774 776 777 779 781 783 784 785 786 787 789 790 791 792 793 793 794 795 795 795 798 800 802 805 808 810 811 813 813 814 815 815 816 816 816 817
771 770 769 769 769 769 770 772 774 776 778 779 780 781 782 783 785 786 786 787 788 789 790 790 790 791 793 795 797 800 803 805 807 808 808 808 810 810 811 811 812 813
Wind_Speed
35 36 35 34 32 30 30 30 28 26 25 24 24 24 23 22 20 20 21 20 20 19 18 16 13 12 12 12 12 11 10 10 9 9 10 9 9 8 8 8 9 9
36 36 35 35 33 31 31 31 30 28 26 24 24 24 23 22 21 21 21 21 20 19 18 17 15 13 12 12 13 12 11 11 10 9 9 9 9 9 9 8 8 8
36 36 36 36 35 34 32 31 30 29 27 25 24 24 23 21 20 20 20 21 21 20 19 17 16 15 14 13 13 14 14 13 11 9 9 9 10 10 9 8 8 8
36 37 37 37 37 35 33 31 31 30 28 26 26 25 24 22 20 19 19 20 21 21 20 18 17 16 15 14 13 14 15 15 13 11 11 10 10 11 11 10 9 8
37 37 37 36 36 34 33 32 31 31 30 29 27 26 25 24 22 20 19 19 20 21 21 20 18 17 16 15 14 14 15 15 15 13 13 13 12 12 12 12 12 10
36 37 37 36 35 34 33 33 33 32 31 31 29 28 27 26 25 23 21 20 20 20 21 21 20 18 17 16 15 15 15 15 15 14 14 14 13 13 13 13 13 12
36 37 37 36 35 35 35 35 34 33 32 32 30 29 29 28 27 26 24 22 21 21 21 20 20 19 18 18 17 17 16 16 16 16 16 16 16 15 15 15 15 15
36 36 37 36 35 35 35 35 34 34 33 31 31 30 30 30 29 28 27 25 24 23 22 21 20 19 19 19 19 19 18 18 18 18 18 18 18 18 18 17 17 18
35 35 36 36 36 36 36 36 36 36 34 32 32 31 30 30 30 30 29 28 26 25 25 23 22 21 20 20 20 20 20 20 20 20 20 20 20 20 19 18 19 19
35 35 34 35 36 37 37 37 36 36 35 35 34 32 31 31 30 30 29 29 28 27 27 26 25 23 22 22 21 21 21 21 21 21 22 22 22 21 20 19 19 19
34 34 34 35 36 37 37 37 36 35 35 36 36 34 33 32 31 30 30 30 30 30 29 29 27 26 25 24 23 23 22 22 22 23 23 23 23 23 22 21 20 20
34 34 34 35 35 36 37 36 35 34 34 35 36 35 34 33 32 31 31 31 31 31 31 30 30 28 28 27 26 25 24 24 24 24 24 24 24 24 23 23 22 21
34 35 35 34 35 35 36 35 35 34 34 34 34 34 34 33 33 33 33 33 32 31 32 32 31 31 30 29 28 27 27 26 25 25 25 25 25 25 24 24 23 22
35 35 35 35 35 35 35 36 35 35 35 35 34 33 33 33 34 34 34 33 33 32 32 32 31 31 31 31 30 30 29 28 28 27 27 26 26 26 26 25 25 24
35 34 35 35 34 35 35 36 35 35 35 35 34 34 34 34 34 33 34 34 33 33 33 32 32 33 33 33 33 32 31 31 30 29 29 28 28 28 27 27 27 26
35 35 35 35 35 36 36 36 35 35 34 34 35 35 35 35 34 33 33 34 34 34 34 34 34 35 35 35 35 34 33 32 32 31 31 30 30 29 29 29 29 29
36 36 35 35 36 36 36 36 35 34 34 34 34 35 35 35 34 34 34 35 35 35 35 35 36 37 38 37 36 36 34 33 33 33 32 32 31 31 31 31 31 30
36 36 36 36 36 36 36 36 35 33 33 34 34 34 34 34 34 35 36 36 35 35 36 37 38 39 39 38 38 37 36 34 34 33 33 32 32 32 32 32 31 31
37 36 36 36 36 36 36 36 35 34 35 35 35 35 33 33 35 36 36 36 36 36 37 38 39 39 39 38 38 37 36 35 34 34 33 33 33 33 33 33 32 31
36 36 36 37 37 37 36 35 35 37 37 37 36 34 34 35 36 36 36 37 37 37 38 39 40 40 40 39 38 38 37 36 35 34 34 34 34 34 34 33 33 32
34 35 36 37 37 36 35 36 37 37 37 37 35 34 35 37 37 36 37 37 38 38 38 39 41 42 40 40 39 38 37 35 35 35 35 35 35 35 34 34 34 34
32 34 35 36 36 35 34 35 36 37 37 37 35 34 35 35 35 36 37 37 38 38 37 39 42 42 41 41 41 39 37 35 35 36 36 36 36 36 35 35 35 35
23 29 33 34 33 33 34 36 36 37 37 36 34 34 34 35 36 36 37 37 37 37 38 40 43 43 41 41 41 39 37 36 36 36 36 37 37 37 37 36 36 36
10 17 25 30 31 31 33 35 35 36 36 35 34 35 36 37 37 36 36 36 37 38 39 41 43 43 41 41 40 39 37 37 37 37 36 37 37 37 37 37 37 37
10 9 14 22 28 32 33 33 34 34 34 33 34 36 36 37 36 34 35 36 37 39 39 40 42 42 41 40 40 38 37 37 37 36 36 36 37 37 37 38 38 37
15 12 11 14 20 27 31 32 32 32 31 31 33 35 35 34 34 34 35 36 37 38 38 40 41 42 41 40 39 38 37 37 37 37 37 37 37 37 37 37 37 37
Wind_Direction
216 218 220 223 224 226 224 223 226 229 233 238 239 236 233 232 231 229 228 229 231 232 232 234 236 238 240 241 241 242 247 256 270 283 281 273 273 274 272 272 271 270
216 218 220 222 224 226 226 225 227 230 234 238 239 236 234 234 234 233 232 231 231 232 234 237 240 243 246 247 244 244 248 255 268 282 281 274 273 277 282 284 280 276
216 218 219 222 225 226 227 227 228 232 235 239 239 235 234 235 235 236 235 234 234 235 236 239 243 245 249 251 249 247 248 254 264 276 281 279 274 274 280 287 290 287
216 219 220 222 225 227 228 228 228 231 234 237 237 235 233 235 236 236 237 237 238 237 238 240 243 246 249 252 253 251 250 252 259 268 275 279 277 272 272 278 285 289
216 219 221 222 224 227 228 228 229 231 233 235 237 235 235 236 236 237 238 240 241 240 240 240 243 246 249 252 254 253 252 251 255 262 268 273 276 274 272 273 275 279
216 218 221 222 224 225 227 229 231 232 233 235 236 236 236 237 238 239 240 242 243 243 242 241 243 245 247 250 252 252 251 250 253 259 264 268 271 272 272 272 272 275
216 218 220 221 223 225 228 230 231 233 234 235 236 237 237 238 239 240 242 245 246 244 244 244 244 245 246 247 250 251 249 249 251 256 260 264 268 270 271 272 274 276
216 218 219 221 222 224 227 229 231 233 234 235 236 238 239 240 241 243 244 246 246 246 246 246 246 246 246 247 249 249 249 248 249 252 256 261 264 267 270 273 276 278
216 218 219 220 221 224 226 228 230 232 233 235 236 238 240 242 243 245 245 246 246 247 247 247 248 247 246 246 248 249 250 251 252 254 256 258 261 265 270 273 275 277
216 217 219 220 221 224 226 228 229 230 232 234 236 238 240 243 245 245 245 245 246 247 247 247 247 247 246 246 247 250 252 255 256 258 259 260 262 265 269 272 273 275
216 217 218 220 222 224 226 228 229 229 231 233 235 237 239 243 244 244 243 244 245 247 247 247 247 247 247 247 248 251 253 257 259 260 261 262 264 266 268 269 271 273
216 217 219 220 222 225 226 228 229 229 230 232 234 235 237 239 241 242 243 243 245 247 247 248 249 248 248 249 250 252 254 257 259 259 262 263 265 267 267 267 269 271
216 218 219 221 223 225 226 228 228 228 229 231 233 234 235 237 238 240 242 243 245 246 247 248 249 248 249 250 251 252 254 257 258 259 261 262 264 266 267 267 267 269
218 219 220 222 223 225 227 228 228 228 229 229 230 232 233 235 236 238 240 241 243 245 246 247 248 248 248 249 250 252 254 256 258 259 260 261 263 264 265 266 267 268
219 220 221 222 223 224 226 227 228 228 228 228 228 230 232 233 235 237 238 239 241 243 244 245 245 246 248 249 250 252 253 255 257 258 260 260 261 262 263 264 265 267
218 219 220 221 222 224 225 227 228 228 228 228 228 229 231 232 233 234 235 237 239 240 242 243 244 246 248 250 251 252 253 254 255 257 258 259 260 260 261 263 264 266
218 218 219 220 221 223 224 226 227 227 227 228 229 230 231 231 232 232 234 236 237 238 240 241 243 246 248 250 251 252 252 252 253 255 256 256 257 258 259 262 263 265
217 218 218 219 221 222 223 225 226 226 227 228 229 230 231 231 232 233 234 235 236 237 239 241 243 246 248 249 251 251 251 251 251 252 252 253 254 255 258 260 261 263
216 216 217 219 220 221 222 223 223 224 226 227 229 230 230 231 232 234 235 235 235 236 238 241 243 245 246 247 249 250 250 249 248 248 249 250 251 253 256 257 258 260
215 216 217 219 221 221 221 221 221 224 226 227 228 228 227 230 232 233 235 235 236 237 239 241 243 244 245 246 247 249 249 248 246 246 247 248 250 251 253 255 256 257
215 216 217 219 220 220 219 219 221 223 225 226 226 226 228 230 231 233 234 236 237 238 239 241 244 245 244 245 245 247 247 246 245 244 244 246 248 249 250 252 254 255
219 218 218 219 220 219 218 219 221 223 225 225 225 226 229 231 232 233 235 236 237 238 239 242 246 246 245 244 245 245 244 243 243 242 242 243 245 247 248 250 252 253
225 222 221 221 220 218 218 220 221 223 225 224 224 225 228 230 232 234 235 236 237 237 238 242 246 247 246 245 245 243 241 239 239 239 239 240 243 245 247 248 251 251
249 231 227 224 222 220 221 222 223 224 225 224 223 225 227 230 232 234 236 237 237 238 238 241 246 248 247 246 245 243 239 237 237 236 236 238 240 243 245 246 249 251
289 255 235 227 225 223 223 225 225 225 225 225 225 226 229 231 232 233 235 237 238 239 240 241 245 248 247 246 245 242 238 236 235 233 233 235 238 240 242 244 246 249
298 274 249 233 229 227 226 226 227 227 226 225 226 228 230 232 232 233 235 237 238 239 240 241 243 246 247 246 245 242 238 235 231 230 231 234 235 237 239 241 243 245